• In Czech Republic
  • List of Countries
  • For 7 days
  • Water Temperature
  • Satellite Maps
  • Weather Map
  • Weather Widgets
  • user-avatar
    Login

    Hourly Weather Druzhba

    Today, 20 April, Friday

    Time Temperature Precipitation Wind Pressure Humidity
    00:00 +4°C° 0.7 mm 3 mps 743 mmHg 97%
    01:00 +4°C° 0.7 mm 3 mps 743 mmHg 96%
    02:00 +4°C° 0.7 mm 4 mps 743 mmHg 95%
    03:00 +4°C° 0.7 mm 4 mps 743 mmHg 95%
    04:00 +2°C° 0.5 mm 5 mps 743 mmHg 93%
    05:00 +2°C° 0.5 mm 5 mps 744 mmHg 91%
    06:00 +2°C° 0.5 mm 6 mps 744 mmHg 89%
    07:00 +2°C° 0.1 mm 6 mps 745 mmHg 83%
    08:00 +3°C° 0.1 mm 7 mps 745 mmHg 77%
    09:00 +3°C° 0.1 mm 7 mps 746 mmHg 71%
    10:00 +3°C° 0 mm 7 mps 746 mmHg 67%
    11:00 +4°C° 0 mm 7 mps 747 mmHg 63%
    12:00 +4°C° 0 mm 7 mps 747 mmHg 59%
    13:00 +4°C° 0 mm 6 mps 747 mmHg 57%
    14:00 +3°C° 0 mm 6 mps 748 mmHg 56%
    15:00 +3°C° 0 mm 6 mps 748 mmHg 55%
    16:00 +2°C° 0 mm 6 mps 748 mmHg 56%
    17:00 +2°C° 0 mm 5 mps 749 mmHg 57%
    18:00 +1°C° 0 mm 5 mps 749 mmHg 58%
    19:00 0°C° 0 mm 4 mps 749 mmHg 61%
    20:00 -1°C° 0 mm 4 mps 750 mmHg 65%
    21:00 -1°C° 0 mm 3 mps 750 mmHg 68%
    22:00 -1°C° 0 mm 3 mps 750 mmHg 71%
    23:00 -2°C° 0 mm 2 mps 750 mmHg 73%

    Tomorrow, 21 April, Saturday

    Time Temperature Precipitation Wind Pressure Humidity
    00:00 -3°C° 0 mm 2 mps 750 mmHg 76%
    01:00 -1°C° 0 mm 1 mps 750 mmHg 76%
    02:00 -1°C° 0 mm 1 mps 750 mmHg 76%
    03:00 -1°C° 0 mm 1 mps 750 mmHg 75%
    04:00 -1°C° 0 mm 1 mps 750 mmHg 72%
    05:00 -1°C° 0 mm 1 mps 749 mmHg 69%
    06:00 0°C° 0 mm 1 mps 749 mmHg 65%
    07:00 +1°C° 0 mm 1 mps 749 mmHg 59%
    08:00 +1°C° 0 mm 2 mps 748 mmHg 52%
    09:00 +2°C° 0 mm 3 mps 748 mmHg 46%
    10:00 +2°C° 0 mm 3 mps 747 mmHg 45%
    11:00 +3°C° 0 mm 4 mps 746 mmHg 44%
    12:00 +3°C° 0 mm 5 mps 745 mmHg 44%
    13:00 +3°C° 0.2 mm 5 mps 744 mmHg 48%
    14:00 +2°C° 0.2 mm 6 mps 743 mmHg 52%
    15:00 +2°C° 0.2 mm 6 mps 742 mmHg 55%
    16:00 +2°C° 0.4 mm 6 mps 741 mmHg 60%
    17:00 +2°C° 0.4 mm 6 mps 740 mmHg 64%
    18:00 +2°C° 0.4 mm 6 mps 739 mmHg 68%
    19:00 +2°C° 1 mm 6 mps 738 mmHg 72%
    20:00 +2°C° 1 mm 7 mps 737 mmHg 76%
    21:00 +2°C° 1 mm 7 mps 735 mmHg 79%
    22:00 +2°C° 0.8 mm 8 mps 734 mmHg 82%
    23:00 +4°C° 0.8 mm 8 mps 732 mmHg 84%

    Day after tomorrow, 22 April, Sunday

    Time Temperature Precipitation Wind Pressure Humidity
    00:00 +5°C° 0.8 mm 8 mps 731 mmHg 86%
    01:00 +5°C° 1.1 mm 8 mps 730 mmHg 87%
    02:00 +5°C° 1.1 mm 8 mps 730 mmHg 89%
    03:00 +6°C° 1.1 mm 8 mps 729 mmHg 90%
    04:00 +5°C° 0.4 mm 7 mps 728 mmHg 90%
    05:00 +5°C° 0.4 mm 6 mps 728 mmHg 90%
    06:00 +5°C° 0.4 mm 5 mps 728 mmHg 90%
    07:00 +6°C° 0.1 mm 5 mps 728 mmHg 85%
    08:00 +5°C° 0.1 mm 6 mps 728 mmHg 80%
    09:00 +5°C° 0.1 mm 6 mps 728 mmHg 75%
    10:00 +7°C° 0.1 mm 6 mps 728 mmHg 74%
    11:00 +7°C° 0.1 mm 6 mps 729 mmHg 73%
    12:00 +7°C° 0.1 mm 6 mps 729 mmHg 73%
    13:00 +5°C° 0.1 mm 6 mps 729 mmHg 74%
    14:00 +5°C° 0.1 mm 6 mps 730 mmHg 75%
    15:00 +5°C° 0.1 mm 6 mps 730 mmHg 76%
    16:00 +4°C° 0.2 mm 6 mps 731 mmHg 79%
    17:00 +3°C° 0.2 mm 6 mps 731 mmHg 82%
    18:00 +2°C° 0.2 mm 6 mps 732 mmHg 85%
    19:00 +1°C° 0.2 mm 5 mps 732 mmHg 86%
    20:00 +1°C° 0.2 mm 5 mps 733 mmHg 87%
    21:00 0°C° 0.2 mm 5 mps 733 mmHg 88%
    22:00 0°C° 0.3 mm 5 mps 733 mmHg 89%
    23:00 0°C° 0.3 mm 5 mps 734 mmHg 89%

    23 April, Monday

    Time Temperature Precipitation Wind Pressure Humidity
    00:00 -1°C° 0.3 mm 5 mps 734 mmHg 90%
    01:00 -1°C° 0.2 mm 5 mps 734 mmHg 90%
    02:00 -2°C° 0.2 mm 6 mps 735 mmHg 89%
    03:00 -3°C° 0.2 mm 6 mps 735 mmHg 89%
    04:00 -3°C° 0.2 mm 6 mps 736 mmHg 88%
    05:00 -3°C° 0.2 mm 6 mps 736 mmHg 88%
    06:00 -3°C° 0.2 mm 6 mps 736 mmHg 87%
    07:00 -3°C° 0.1 mm 6 mps 737 mmHg 86%
    08:00 -3°C° 0.1 mm 6 mps 738 mmHg 84%
    09:00 -3°C° 0.1 mm 6 mps 739 mmHg 83%
    10:00 -2°C° 0.2 mm 6 mps 739 mmHg 81%
    11:00 -1°C° 0.2 mm 5 mps 740 mmHg 80%
    12:00 -1°C° 0.2 mm 5 mps 740 mmHg 78%
    13:00 0°C° 0.2 mm 5 mps 741 mmHg 78%
    14:00 0°C° 0.2 mm 5 mps 742 mmHg 77%
    15:00 0°C° 0.2 mm 5 mps 742 mmHg 77%
    16:00 0°C° 0.1 mm 5 mps 743 mmHg 78%
    17:00 0°C° 0.1 mm 4 mps 743 mmHg 79%
    18:00 -1°C° 0.1 mm 4 mps 744 mmHg 80%
    19:00 -1°C° 0 mm 4 mps 744 mmHg 84%
    20:00 -1°C° 0 mm 3 mps 744 mmHg 87%
    21:00 -2°C° 0 mm 3 mps 745 mmHg 90%
    22:00 -2°C° 0 mm 3 mps 745 mmHg 91%
    23:00 -2°C° 0 mm 3 mps 745 mmHg 91%

    24 April, Tuesday

    Time Temperature Precipitation Wind Pressure Humidity
    00:00 -2°C° 0 mm 3 mps 745 mmHg 92%
    01:00 -2°C° 0 mm 3 mps 745 mmHg 92%
    02:00 -4°C° 0 mm 3 mps 745 mmHg 92%
    03:00 -4°C° 0 mm 3 mps 746 mmHg 92%
    04:00 -4°C° 0 mm 4 mps 746 mmHg 90%
    05:00 -4°C° 0 mm 4 mps 746 mmHg 88%
    06:00 -3°C° 0 mm 4 mps 746 mmHg 86%
    07:00 -3°C° 0 mm 4 mps 746 mmHg 81%
    08:00 -2°C° 0 mm 4 mps 747 mmHg 75%
    09:00 -1°C° 0 mm 5 mps 747 mmHg 70%
    10:00 -1°C° 0.1 mm 5 mps 747 mmHg 68%
    11:00 0°C° 0.1 mm 5 mps 747 mmHg 66%
    12:00 +1°C° 0.1 mm 5 mps 748 mmHg 64%
    13:00 +1°C° 0.1 mm 5 mps 748 mmHg 64%
    14:00 +1°C° 0.1 mm 4 mps 748 mmHg 64%
    15:00 +1°C° 0.1 mm 4 mps 748 mmHg 64%
    16:00 +1°C° 0.1 mm 4 mps 749 mmHg 68%
    17:00 +1°C° 0.1 mm 4 mps 749 mmHg 71%
    18:00 +1°C° 0.1 mm 3 mps 749 mmHg 74%
    19:00 0°C° 0 mm 3 mps 749 mmHg 79%
    20:00 -1°C° 0 mm 2 mps 749 mmHg 84%
    21:00 -2°C° 0 mm 2 mps 750 mmHg 89%
    22:00 -2°C° 0 mm 2 mps 750 mmHg 90%
    23:00 -3°C° 0 mm 2 mps 750 mmHg 92%

    25 April, Wednesday

    Time Temperature Precipitation Wind Pressure Humidity
    00:00 -3°C° 0 mm 2 mps 750 mmHg 93%
    01:00 -3°C° 0 mm 2 mps 750 mmHg 94%
    02:00 -4°C° 0 mm 2 mps 751 mmHg 94%
    03:00 -4°C° 0 mm 2 mps 751 mmHg 94%
    04:00 -3°C° 0 mm 2 mps 751 mmHg 92%
    05:00 -3°C° 0 mm 2 mps 751 mmHg 89%
    06:00 -2°C° 0 mm 2 mps 752 mmHg 86%
    07:00 +1°C° 0 mm 2 mps 752 mmHg 78%
    08:00 +3°C° 0 mm 2 mps 752 mmHg 71%
    09:00 +4°C° 0 mm 2 mps 752 mmHg 63%
    10:00 +6°C° 0 mm 1 mps 752 mmHg 59%
    11:00 +7°C° 0 mm 1 mps 753 mmHg 56%
    12:00 +8°C° 0 mm 1 mps 753 mmHg 52%
    13:00 +8°C° 0 mm 1 mps 753 mmHg 52%
    14:00 +8°C° 0 mm 1 mps 753 mmHg 52%
    15:00 +8°C° 0 mm 1 mps 753 mmHg 53%
    16:00 +7°C° 0 mm 1 mps 753 mmHg 56%
    17:00 +7°C° 0 mm 1 mps 753 mmHg 60%
    18:00 +6°C° 0 mm 1 mps 753 mmHg 63%
    19:00 +6°C° 0 mm 1 mps 753 mmHg 65%
    20:00 +5°C° 0 mm 1 mps 753 mmHg 68%
    21:00 +3°C° 0 mm 2 mps 753 mmHg 70%
    22:00 +2°C° 0 mm 2 mps 753 mmHg 73%
    23:00 +2°C° 0 mm 2 mps 753 mmHg 75%
    Show more